Edinburgh Airport, United Kingdom

2:02 AM BST on September 23, 2017 (GMT +0100)
Edinburgh Airport

Weather History for EGPH - March, 2013

Change the Weather History Date:

Tuesday, March 5, 2013

  Actual Average Record
Temperature  
Mean Temperature 36 °F -  
Max Temperature 46 °F 49 °F 51 °F (2003)
Min Temperature 26 °F 36 °F 24 °F (1998)
Degree Days  
Heating Degree Days 29    
Moisture  
Dew Point 31 °F    
Average Humidity 85    
Maximum Humidity 100    
Minimum Humidity 57    
Precipitation  
Precipitation 0.00 in 0.06 in - ()
Sea Level Pressure  
Sea Level Pressure 29.70 in    
Wind  
Wind Speed 2 mph ()    
Max Wind Speed 9 mph    
Max Gust Speed -    
Visibility 4.3 miles    
Events Fog    
Averages and records for this station are not official NWS values.
T = Trace of Precipitation, MM = Missing Value Source: Averaged Metar Reports

Daily Weather History Graph

Daily Weather History Graph

Search for Another Location

Airport or City:

Trip Planner

Search our weather history database for the weather conditions in past years. The results will help you decide how hot, cold, wet, or windy it might be!

Date:

Astronomy

Mar. 05, 2013 Rise Set
Actual Time 6:54 AM GMT 5:56 PM GMT
Civil Twilight 6:17 AM GMT 6:33 PM GMT
Nautical Twilight 5:34 AM GMT 7:16 PM GMT
Astronomical Twilight 4:50 AM GMT 8:00 PM GMT
Moon 2:41 AM GMT (3/5) 10:30 AM GMT (3/5)
Length of Visible Light 12h 16m
Length of Day
11h 01m
Last Quarter, 43% of the Moon is Illuminated
Mar 5
Last Quarter
Mar 11
New
Mar 19
First Quarter
Mar 27
Full
Apr 3
Last Quarter

Hourly Weather History & Observations

Time (GMT) Temp. Windchill Dew Point Humidity Pressure Visibility Wind Dir Wind Speed Gust Speed Precip Events Conditions
12:20 AM 30.2 °F - 28.4 °F 93% 29.74 in 1.6 mi SW 2.3 mph - N/A   Mist
12:50 AM 28.4 °F - 28.4 °F 100% 29.74 in 5.6 mi Calm Calm - N/A   Unknown
1:20 AM 28.4 °F - 28.4 °F 100% 29.74 in 5.6 mi Variable 2.3 mph - N/A Fog Fog
1:50 AM 28.4 °F - 28.4 °F 100% 29.74 in 5.6 mi SW 2.3 mph - N/A   Unknown
2:20 AM 30.2 °F - 28.4 °F 93% 29.71 in - Calm Calm - N/A   Mist
2:50 AM 28.4 °F - 28.4 °F 100% 29.71 in 5.6 mi Calm Calm - N/A   Unknown
3:20 AM 28.4 °F - 28.4 °F 100% 29.71 in 5.6 mi Calm Calm - N/A   Unknown
3:50 AM 30.2 °F 26.7 °F 28.4 °F 93% 29.71 in 5.6 mi SW 3.5 mph - N/A   Unknown
4:20 AM 26.6 °F 22.6 °F 26.6 °F 100% 29.71 in 5.0 mi SW 3.5 mph - N/A   Scattered Clouds
4:50 AM 28.4 °F - 26.6 °F 93% 29.71 in 4.3 mi Calm Calm - N/A   Scattered Clouds
5:20 AM 28.4 °F - 28.4 °F 100% 29.71 in 4.3 mi Calm Calm - N/A   Scattered Clouds
5:50 AM 28.4 °F - 28.4 °F 100% 29.71 in 4.3 mi Calm Calm - N/A   Overcast
6:20 AM 28.4 °F - 28.4 °F 100% 29.71 in 5.6 mi SSW 2.3 mph - N/A   Overcast
6:50 AM 28.4 °F - 28.4 °F 100% 29.71 in - Calm Calm - N/A   Mostly Cloudy
7:20 AM 28.4 °F - 28.4 °F 100% 29.71 in 1.9 mi Calm Calm - N/A   Partly Cloudy
7:50 AM 28.4 °F - 28.4 °F 100% 29.71 in 2.2 mi Calm Calm - N/A   Mist
8:20 AM 30.2 °F 26.7 °F 30.2 °F 100% 29.71 in 2.2 mi WSW 3.5 mph - N/A   Mist
8:50 AM 32.0 °F - 32.0 °F 100% 29.71 in 2.2 mi West 2.3 mph - N/A   Mist
9:20 AM 35.6 °F 32.8 °F 33.8 °F 93% 29.71 in - WSW 3.5 mph - N/A   Haze
9:50 AM 37.4 °F - 35.6 °F 93% 29.71 in - Variable 2.3 mph - N/A   Haze
10:20 AM 41.0 °F - 35.6 °F 81% 29.71 in - Variable 2.3 mph - N/A   Haze
10:50 AM 42.8 °F - 35.6 °F 76% 29.68 in 2.8 mi Calm Calm - N/A   Haze
11:50 AM 44.6 °F - 35.6 °F 71% 29.68 in 3.7 mi Variable 2.3 mph - N/A   Unknown
12:20 PM 46.4 °F - 33.8 °F 62% 29.68 in 5.0 mi Variable 2.3 mph - N/A   Unknown
12:50 PM 46.4 °F - 33.8 °F 62% 29.68 in 5.0 mi Variable 2.3 mph - N/A   Unknown
1:20 PM 46.4 °F 44.3 °F 32.0 °F 57% 29.68 in 5.6 mi NW 4.6 mph - N/A   Unknown
1:50 PM 46.4 °F 45.2 °F 32.0 °F 57% 29.68 in 5.6 mi Variable 3.5 mph - N/A   Unknown
2:20 PM 46.4 °F - 32.0 °F 57% 29.68 in 5.6 mi Variable 2.3 mph - N/A   Unknown
2:50 PM 46.4 °F - 32.0 °F 57% 29.65 in 5.6 mi Variable 2.3 mph - N/A   Unknown
3:20 PM 46.4 °F - 32.0 °F 57% 29.65 in 5.6 mi West 2.3 mph - N/A   Unknown
3:50 PM 46.4 °F 43.5 °F 33.8 °F 62% 29.65 in 5.6 mi NE 5.8 mph - N/A   Unknown
4:20 PM 46.4 °F 44.3 °F 33.8 °F 62% 29.65 in 5.6 mi ENE 4.6 mph - N/A   Unknown
4:50 PM 44.6 °F 42.2 °F 33.8 °F 66% 29.65 in 5.6 mi NE 4.6 mph - N/A   Unknown
5:20 PM 41.0 °F 37.1 °F 32.0 °F 70% 29.65 in 5.6 mi NE 5.8 mph - N/A   Unknown
5:50 PM 39.2 °F 33.0 °F 33.8 °F 81% 29.68 in 5.0 mi NE 9.2 mph - N/A   Unknown
6:20 PM 37.4 °F 32.8 °F 32.0 °F 81% 29.68 in 3.1 mi ENE 5.8 mph - N/A   Haze
6:50 PM 35.6 °F 31.7 °F 32.0 °F 87% 29.68 in 3.1 mi NE 4.6 mph - N/A   Haze
7:20 PM 35.6 °F 30.7 °F 32.0 °F 87% 29.68 in 4.3 mi ENE 5.8 mph - N/A   Unknown
7:50 PM 33.8 °F 29.6 °F 32.0 °F 93% 29.68 in 4.3 mi ENE 4.6 mph - N/A   Unknown
8:20 PM 35.6 °F 31.7 °F 32.0 °F 87% 29.68 in 4.3 mi NE 4.6 mph - N/A   Unknown
8:50 PM 33.8 °F 29.6 °F 32.0 °F 93% 29.68 in 5.0 mi ENE 4.6 mph - N/A   Unknown
9:20 PM 33.8 °F 27.7 °F 32.0 °F 93% 29.71 in 5.0 mi ENE 6.9 mph - N/A   Unknown
9:50 PM 33.8 °F 29.6 °F 32.0 °F 93% 29.71 in 3.7 mi ENE 4.6 mph - N/A   Unknown
10:20 PM 33.8 °F 28.6 °F 32.0 °F 93% 29.71 in 1.4 mi ENE 5.8 mph - N/A   Haze
10:50 PM 37.4 °F 32.8 °F 35.6 °F 93% 29.71 in 1.9 mi East 5.8 mph - N/A   Haze
11:20 PM 37.4 °F 30.8 °F 35.6 °F 93% 29.71 in - East 9.2 mph - N/A   Haze
11:50 PM 39.2 °F 33.6 °F 35.6 °F 87% 29.71 in 3.1 mi ENE 8.1 mph - N/A   Haze